Home   Weather   Loughton   Past weeks

Flag for United Kingdom Past Weather in Loughton, England, United Kingdom — Yesterday and Last 2 Weeks

Now
27 °F

Chilly.


Feels Like: 27 °F
Forecast: 31 / 45 °F
Wind: 2 mph from Southeast

Location: Gravesend-Broadness

Current Time: Jan 20, 2017 at 1:51:17 am

Latest Report: Jan 20, 2017 at 1:00 am


Visibility: N/A

Pressure: 30.58 "Hg

Humidity: 96%

Dew Point: 26 °F

Location of LoughtonLocation

Past Weather in Loughton — Graph

°F

Loughton Temperature Yesterday

Maximum temperature yesterday: 44 °F (at 2:00 pm)
Minimum temperature yesterday: 24 °F (at 7:00 am)
Average temperature yesterday: 33 °F

High & Low Weather Summary for the Past Weeks

 TemperatureHumidityPressure
High51 °F (Jan 11, 11:00 am)99% (Jan 6, 6:00 am)30.69 "Hg (Jan 6, 6:00 am)
Low22 °F (Jan 18, 7:00 am)52% (Jan 11, 3:00 pm)29.29 "Hg (Jan 12, 6:00 pm)
Average40 °F88%30.25 "Hg
* Reported Jan 5 1:00 am — Jan 20 12:00 am, Loughton, Weather by CustomWeather, © 2017

Note: Actual official high and low records may vary slightly from our data, if they occured in-between our weather recording intervals... More about our weather records

Advertising

Loughton Weather History for the Previous 24 Hours

Scroll right to see more
 ConditionsComfort  
Time TempWeatherWind HumidityBarometerVisibility
12:00 am
Fri, Jan 20
27 °FChilly.1 mph91%30.58 "HgN/A
11:00 pm
Thu, Jan 19
33 °FChilly.5 mph95%30.58 "HgN/A
10:00 pm30 °FChilly.1 mph92%30.59 "HgN/A
9:00 pm32 °FChilly.5 mph96%30.60 "HgN/A
8:00 pm32 °FChilly.3 mph87%30.60 "HgN/A
7:00 pm35 °FChilly.5 mph85%30.60 "HgN/A
6:00 pm36 °FChilly.6 mph83%30.60 "HgN/A
5:00 pm37 °FChilly.7 mph80%30.59 "HgN/A
4:00 pm40 °FChilly.7 mph74%30.59 "HgN/A
3:00 pm42 °FQuite cool.8 mph72%30.60 "HgN/A
2:00 pm44 °FQuite cool.8 mph66%30.60 "HgN/A
1:00 pm44 °FQuite cool.9 mph68%30.61 "HgN/A
12:00 pm42 °FQuite cool.1 mph77%30.63 "HgN/A
11:00 am39 °FChilly.1 mph82%30.64 "HgN/A
10:00 am36 °FChilly.1 mph92%30.64 "HgN/A
9:00 am33 °FChilly.2 mph96%30.64 "HgN/A
8:00 am31 °FChilly.3 mph99%30.64 "HgN/A
7:00 am24 °FCold.2 mph96%30.63 "HgN/A
6:00 am25 °FChilly.1 mph96%30.63 "HgN/A
5:00 am26 °FChilly.1 mph98%30.63 "HgN/A
4:00 am24 °FCold.1 mph96%30.64 "HgN/A
3:00 am24 °FCold.2 mph96%30.65 "HgN/A
2:00 am26 °FChilly.2 mph96%30.65 "HgN/A
1:00 am26 °FChilly.1 mph95%30.65 "HgN/A
Weather by CustomWeather, © 2017

See weather overviewHow to use our weather pages